Hourly Data Report for August 11, 2013

All times are specified in Local Standard Time (LST). Add 1 hour to adjust for Daylight Saving Time where and when it is observed.

VICTORIA INTL A
BRITISH COLUMBIA

48°38'50.000" N
123°25'33.000" W
19.50 m
1018621
71799
YYJ

Download Data

Hourly Data (August 2013)
Hourly Data Report for August 11, 2013
Temp Definition
°C
Dew Point Temp Definition
°C
Rel Hum Definition
%
Wind Dir Definition
10's deg

Wind Spd Definition
km/h
Visibility Definition
km
Stn Press Definition
kPa
Hmdx Definition


Wind Chill Definition


Weather Definition


TIME
00:00 12.7 10.6 87 36 8 48.3 101.33     LegendNANA
01:00 13.3 11.0 86 10 8 48.3 101.36     Cloudy
02:00 12.5 10.8 89 15 6 48.3 101.38     LegendNANA
03:00 13.9 11.5 85 13 9 32.2 101.37     LegendNANA
04:00 13.5 10.9 84 2 2 32.2 101.39     Cloudy
05:00 13.4 11.1 86 14 3 32.2 101.41     LegendNANA
06:00 14.2 11.9 86 1 2 32.2 101.43     LegendNANA
07:00 12.8 11.2 90 7 6 32.2 101.50     Cloudy
08:00 13.7 12.6 93 27 10 24.1 101.51     Rain
09:00 12.8 12.2 96 12 8 16.1 101.58     Rain
10:00 13.8 13.2 96 12 9 32.2 101.56     Rain
11:00 14.7 13.3 91 12 9 32.2 101.59     LegendNANA
12:00 17.6 13.6 77 9 7 48.3 101.58     LegendNANA
13:00 18.3 12.4 68 9 12 48.3 101.58     Mainly Clear
14:00 19.2 12.3 64 9 10 48.3 101.51     LegendNANA
15:00 17.5 11.4 67 12 19 48.3 101.45     LegendNANA
16:00 19.0 11.7 62 12 14 48.3 101.38     Mainly Clear
17:00 18.3 11.0 62 11 14 48.3 101.37     LegendNANA
18:00 16.7 11.3 70 10 9 48.3 101.37     LegendNANA
19:00 14.9 11.3 79 10 14 48.3 101.35     Mostly Cloudy
20:00 14.3 11.3 82 11 8 48.3 101.38     LegendNANA
21:00 14.1 11.6 85 6 8 48.3 101.41     LegendNANA
22:00 14.1 11.5 84 4 3 48.3 101.41     Mostly Cloudy
23:00 13.2 11.3 88 8 6 48.3 101.43     LegendNANA

Notes on Data Quality.

Legend

  • E = Estimated
  • M = Missing
  • NA = Not Available
Date modified: